Tracking 20721 objects as of 2-Jun-2020
HD Live streaming from Space Station
objects crossing your sky now

METEOR 2-8 DEB

Track METEOR 2-8 DEB now!
10-day predictions


NORAD ID: 36355
Int'l Code: 1982-025AR
Perigee: 839.4 km
Apogee: 873.0 km
Inclination: 82.5 °
Period: 101.9 minutes
Semi major axis: 7227 km
RCS: 0.0127 m2 (small)
Launch date: March 25, 1982
Source: Commonwealth of Independent States (former USSR) (CIS)
Launch site: PLESETSK MISSILE AND SPACE COMPLEX (PKMTR)

Note: This is SATELLITE DEBRIS
aabbcc
Your satellite tracking list
Your tracking list is empty




NASA's NSSDC Master Catalog

Two Line Element Set (TLE):
1 36355U 82025AR  20147.58525066 -.00000111  00000-0 -68241-4 0  9990
2 36355  82.5224 240.3245 0023203 144.9194 215.3516 14.13014609897904
Source of the keplerian elements: AFSPC